Year,Month,Day,Hour,Minute,Value (Times are PST for temperature in C)
2013,07,01,00,00,19.90
2013,07,01,00,01,19.90
2013,07,01,00,02,19.90
2013,07,01,00,03,20.00
2013,07,01,00,04,19.90
2013,07,01,00,05,19.90
2013,07,01,00,06,19.90
2013,07,01,00,07,19.90
2013,07,01,00,08,19.90
2013,07,01,00,09,19.90
2013,07,01,00,10,19.90
2013,07,01,00,11,19.90
2013,07,01,00,12,19.90
2013,07,01,00,13,19.90
2013,07,01,00,14,19.90
2013,07,01,00,15,19.90
2013,07,01,00,16,19.90
2013,07,01,00,17,19.90
2013,07,01,00,18,19.90
2013,07,01,00,19,19.90
2013,07,01,00,20,19.90
2013,07,01,00,21,19.90
2013,07,01,00,22,19.90
2013,07,01,00,23,19.90
2013,07,01,00,24,19.90
2013,07,01,00,25,19.90
2013,07,01,00,26,19.90
2013,07,01,00,27,19.90
2013,07,01,00,28,19.80
2013,07,01,00,29,19.80
2013,07,01,00,30,19.80
2013,07,01,00,31,19.80
2013,07,01,00,32,19.80
2013,07,01,00,33,19.80
2013,07,01,00,34,19.80
2013,07,01,00,35,19.80
2013,07,01,00,36,19.80
2013,07,01,00,37,19.80
2013,07,01,00,38,19.80
2013,07,01,00,39,19.80
2013,07,01,00,40,19.70
2013,07,01,00,41,19.70
2013,07,01,00,42,19.70
2013,07,01,00,43,19.70
2013,07,01,00,44,19.70
2013,07,01,00,45,19.60
2013,07,01,00,46,19.60
2013,07,01,00,47,19.60
2013,07,01,00,48,19.60
2013,07,01,00,49,19.50
2013,07,01,00,50,19.50
2013,07,01,00,51,19.50
2013,07,01,00,52,19.50
2013,07,01,00,53,19.50
2013,07,01,00,54,19.50
2013,07,01,00,55,19.50
2013,07,01,00,56,19.50
2013,07,01,00,57,19.50
2013,07,01,00,58,19.50
2013,07,01,00,59,19.50
2013,07,01,01,00,19.50
2013,07,01,01,01,19.50
2013,07,01,01,02,19.50
2013,07,01,01,03,19.50
2013,07,01,01,04,19.50
2013,07,01,01,05,19.50
2013,07,01,01,06,19.50
2013,07,01,01,07,19.50
2013,07,01,01,08,19.50
2013,07,01,01,09,19.50
2013,07,01,01,10,19.50
2013,07,01,01,11,19.50
2013,07,01,01,12,19.50
2013,07,01,01,13,19.50
2013,07,01,01,14,19.50
2013,07,01,01,15,19.50
2013,07,01,01,16,19.50
2013,07,01,01,17,19.40
2013,07,01,01,18,19.40
2013,07,01,01,19,19.40
2013,07,01,01,20,19.40
2013,07,01,01,21,19.40
2013,07,01,01,22,19.40
2013,07,01,01,23,19.40
2013,07,01,01,24,19.30
2013,07,01,01,25,19.30
2013,07,01,01,26,19.30
2013,07,01,01,27,19.30
2013,07,01,01,28,19.30
2013,07,01,01,29,19.30
2013,07,01,01,30,19.30
2013,07,01,01,31,19.30
2013,07,01,01,32,19.20
2013,07,01,01,33,19.20
2013,07,01,01,34,19.20
2013,07,01,01,35,19.20
2013,07,01,01,36,19.10
2013,07,01,01,37,19.10
2013,07,01,01,38,19.10
2013,07,01,01,39,19.10
2013,07,01,01,40,19.10
2013,07,01,01,41,19.10
2013,07,01,01,42,19.10
2013,07,01,01,43,19.00
2013,07,01,01,44,18.90
2013,07,01,01,45,18.90
2013,07,01,01,46,18.90
2013,07,01,01,47,18.90
2013,07,01,01,48,18.90
2013,07,01,01,49,18.90
2013,07,01,01,50,18.90
2013,07,01,01,51,18.90
2013,07,01,01,52,18.90
2013,07,01,01,53,18.90
2013,07,01,01,54,18.90
2013,07,01,01,55,18.80
2013,07,01,01,56,18.80
2013,07,01,01,57,18.80
2013,07,01,01,58,18.80
2013,07,01,01,59,18.80
2013,07,01,02,00,18.80
2013,07,01,02,01,18.80
2013,07,01,02,02,18.80
2013,07,01,02,03,18.80
2013,07,01,02,04,18.80
2013,07,01,02,05,18.80
2013,07,01,02,06,18.80
2013,07,01,02,07,18.80
2013,07,01,02,08,18.70
2013,07,01,02,09,18.70
2013,07,01,02,10,18.70
2013,07,01,02,11,18.70
2013,07,01,02,12,18.70
2013,07,01,02,13,18.70
2013,07,01,02,14,18.70
2013,07,01,02,15,18.70
2013,07,01,02,16,18.70
2013,07,01,02,17,18.70
2013,07,01,02,18,18.70
2013,07,01,02,19,18.70
2013,07,01,02,20,18.70
2013,07,01,02,21,18.70
2013,07,01,02,22,18.70
2013,07,01,02,23,18.70
2013,07,01,02,24,18.70
2013,07,01,02,25,18.70
2013,07,01,02,26,18.70
2013,07,01,02,27,18.70
2013,07,01,02,28,18.70
2013,07,01,02,29,18.60
2013,07,01,02,30,18.60
2013,07,01,02,31,18.60
2013,07,01,02,32,18.60
2013,07,01,02,33,18.60
2013,07,01,02,34,18.60
2013,07,01,02,35,18.60
2013,07,01,02,36,18.60
2013,07,01,02,37,18.60
2013,07,01,02,38,18.60
2013,07,01,02,39,18.50
2013,07,01,02,40,18.50
2013,07,01,02,41,18.50
2013,07,01,02,42,18.50
2013,07,01,02,43,18.50
2013,07,01,02,44,18.40
2013,07,01,02,45,18.40
2013,07,01,02,46,18.40
2013,07,01,02,47,18.40
2013,07,01,02,48,18.40
2013,07,01,02,49,18.40
2013,07,01,02,50,18.40
2013,07,01,02,51,18.40
2013,07,01,02,52,18.40
2013,07,01,02,53,18.40
2013,07,01,02,54,18.40
2013,07,01,02,55,18.30
2013,07,01,02,56,18.30
2013,07,01,02,57,18.30
2013,07,01,02,58,18.30
2013,07,01,02,59,18.30
2013,07,01,03,00,18.30
2013,07,01,03,01,18.30
2013,07,01,03,02,18.30
2013,07,01,03,03,18.30
2013,07,01,03,04,18.30
2013,07,01,03,05,18.30
2013,07,01,03,06,18.30
2013,07,01,03,07,18.30
2013,07,01,03,08,18.30
2013,07,01,03,09,18.20
2013,07,01,03,10,18.20
2013,07,01,03,11,18.20
2013,07,01,03,12,18.20
2013,07,01,03,13,18.20
2013,07,01,03,14,18.20
2013,07,01,03,15,18.20
2013,07,01,03,16,18.20
2013,07,01,03,17,18.20
2013,07,01,03,18,18.20
2013,07,01,03,19,18.20
2013,07,01,03,20,18.10
2013,07,01,03,21,18.10
2013,07,01,03,22,18.10
2013,07,01,03,23,18.10
2013,07,01,03,24,18.10
2013,07,01,03,25,18.10
2013,07,01,03,26,17.90
2013,07,01,03,27,17.90
2013,07,01,03,28,17.90
2013,07,01,03,29,17.90
2013,07,01,03,30,17.90
2013,07,01,03,31,17.90
2013,07,01,03,32,17.90
2013,07,01,03,33,17.90
2013,07,01,03,34,17.90
2013,07,01,03,35,17.90
2013,07,01,03,36,17.90
2013,07,01,03,37,17.80
2013,07,01,03,38,17.80
2013,07,01,03,39,17.80
2013,07,01,03,40,17.80
2013,07,01,03,41,17.80
2013,07,01,03,42,17.80
2013,07,01,03,43,17.80
2013,07,01,03,44,17.80
2013,07,01,03,45,17.80
2013,07,01,03,46,17.70
2013,07,01,03,47,17.70
2013,07,01,03,48,17.70
2013,07,01,03,49,17.70
2013,07,01,03,50,17.60
2013,07,01,03,51,17.60
2013,07,01,03,52,17.60
2013,07,01,03,53,17.60
2013,07,01,03,54,17.50
2013,07,01,03,55,17.50
2013,07,01,03,56,17.50
2013,07,01,03,57,17.40
2013,07,01,03,58,17.40
2013,07,01,03,59,17.40
2013,07,01,04,00,17.40
2013,07,01,04,01,17.30
2013,07,01,04,02,17.30
2013,07,01,04,03,17.30
2013,07,01,04,04,17.30
2013,07,01,04,05,17.30
2013,07,01,04,06,17.30
2013,07,01,04,07,17.30
2013,07,01,04,08,17.30
2013,07,01,04,09,17.30
2013,07,01,04,10,17.30
2013,07,01,04,11,17.30
2013,07,01,04,12,17.30
2013,07,01,04,13,17.30
2013,07,01,04,14,17.30
2013,07,01,04,15,17.30
2013,07,01,04,16,17.30
2013,07,01,04,17,17.30
2013,07,01,04,18,17.30
2013,07,01,04,19,17.30
2013,07,01,04,20,17.30
2013,07,01,04,21,17.30
2013,07,01,04,22,17.30
2013,07,01,04,23,17.30
2013,07,01,04,24,17.20
2013,07,01,04,25,17.20
2013,07,01,04,26,17.20
2013,07,01,04,27,17.20
2013,07,01,04,28,17.10
2013,07,01,04,29,17.10
2013,07,01,04,30,17.10
2013,07,01,04,31,17.10
2013,07,01,04,32,17.10
2013,07,01,04,33,17.10
2013,07,01,04,34,17.10
2013,07,01,04,35,17.10
2013,07,01,04,36,17.10
2013,07,01,04,37,17.10
2013,07,01,04,38,17.10
2013,07,01,04,39,17.10
2013,07,01,04,40,17.10
2013,07,01,04,41,17.10
2013,07,01,04,42,17.10
2013,07,01,04,43,17.10
2013,07,01,04,44,17.20
2013,07,01,04,45,17.20
2013,07,01,04,46,17.20
2013,07,01,04,47,17.20
2013,07,01,04,48,17.20
2013,07,01,04,49,17.20
2013,07,01,04,50,17.20
2013,07,01,04,51,17.20
2013,07,01,04,52,17.20
2013,07,01,04,53,17.20
2013,07,01,04,54,17.20
2013,07,01,04,55,17.20
2013,07,01,04,56,17.20
2013,07,01,04,57,17.20
2013,07,01,04,58,17.20
2013,07,01,04,59,17.10
2013,07,01,05,00,17.10
2013,07,01,05,01,17.10
2013,07,01,05,02,17.10
2013,07,01,05,03,17.00
2013,07,01,05,04,17.00
2013,07,01,05,05,17.00
2013,07,01,05,06,17.00
2013,07,01,05,07,17.00
2013,07,01,05,08,17.00
2013,07,01,05,09,17.00
2013,07,01,05,10,17.00
2013,07,01,05,11,17.00
2013,07,01,05,12,17.00
2013,07,01,05,13,16.90
2013,07,01,05,14,16.90
2013,07,01,05,15,16.90
2013,07,01,05,16,16.90
2013,07,01,05,17,16.90
2013,07,01,05,18,16.90
2013,07,01,05,19,16.90
2013,07,01,05,20,16.90
2013,07,01,05,21,16.90
2013,07,01,05,22,16.90
2013,07,01,05,23,16.80
2013,07,01,05,24,16.80
2013,07,01,05,25,16.90
2013,07,01,05,26,16.80
2013,07,01,05,27,16.80
2013,07,01,05,28,16.80
2013,07,01,05,29,16.80
2013,07,01,05,30,16.90
2013,07,01,05,31,16.90
2013,07,01,05,32,16.90
2013,07,01,05,33,16.90
2013,07,01,05,34,16.90
2013,07,01,05,35,16.90
2013,07,01,05,36,16.90
2013,07,01,05,37,16.90
2013,07,01,05,38,16.90
2013,07,01,05,39,16.80
2013,07,01,05,40,16.80
2013,07,01,05,41,16.90
2013,07,01,05,42,16.90
2013,07,01,05,43,16.90
2013,07,01,05,44,16.90
2013,07,01,05,45,17.00
2013,07,01,05,46,17.00
2013,07,01,05,47,17.00
2013,07,01,05,48,17.10
2013,07,01,05,49,17.10
2013,07,01,05,50,17.20
2013,07,01,05,51,17.20
2013,07,01,05,52,17.30
2013,07,01,05,53,17.30
2013,07,01,05,54,17.30
2013,07,01,05,55,17.30
2013,07,01,05,56,17.40
2013,07,01,05,57,17.40
2013,07,01,05,58,17.50
2013,07,01,05,59,17.50
2013,07,01,06,00,17.50
2013,07,01,06,01,17.60
2013,07,01,06,02,17.70
2013,07,01,06,03,17.70
2013,07,01,06,04,17.70
2013,07,01,06,05,17.70
2013,07,01,06,06,17.80
2013,07,01,06,07,17.80
2013,07,01,06,08,17.80
2013,07,01,06,09,17.90
2013,07,01,06,10,17.90
2013,07,01,06,11,17.90
2013,07,01,06,12,17.90
2013,07,01,06,13,18.00
2013,07,01,06,14,18.10
2013,07,01,06,15,18.10
2013,07,01,06,16,18.10
2013,07,01,06,17,18.20
2013,07,01,06,18,18.20
2013,07,01,06,19,18.20
2013,07,01,06,20,18.20
2013,07,01,06,21,18.30
2013,07,01,06,22,18.30
2013,07,01,06,23,18.30
2013,07,01,06,24,18.40
2013,07,01,06,25,18.50
2013,07,01,06,26,18.50
2013,07,01,06,27,18.60
2013,07,01,06,28,18.70
2013,07,01,06,29,18.80
2013,07,01,06,30,18.90
2013,07,01,06,31,18.90
2013,07,01,06,32,19.00
2013,07,01,06,33,19.10
2013,07,01,06,34,19.10
2013,07,01,06,35,19.20
2013,07,01,06,36,19.20
2013,07,01,06,37,19.20
2013,07,01,06,38,19.30
2013,07,01,06,39,19.30
2013,07,01,06,40,19.20
2013,07,01,06,41,19.20
2013,07,01,06,42,19.20
2013,07,01,06,43,19.20
2013,07,01,06,44,19.20
2013,07,01,06,45,19.20
2013,07,01,06,46,19.20
2013,07,01,06,47,19.30
2013,07,01,06,48,19.30
2013,07,01,06,49,19.30
2013,07,01,06,50,19.40
2013,07,01,06,51,19.40
2013,07,01,06,52,19.50
2013,07,01,06,53,19.50
2013,07,01,06,54,19.60
2013,07,01,06,55,19.60
2013,07,01,06,56,19.70
2013,07,01,06,57,19.80
2013,07,01,06,58,19.90
2013,07,01,06,59,20.00
2013,07,01,07,00,20.10
2013,07,01,07,01,20.20
2013,07,01,07,02,20.20
2013,07,01,07,03,20.30
2013,07,01,07,04,20.40
2013,07,01,07,05,20.50
2013,07,01,07,06,20.50
2013,07,01,07,07,20.60
2013,07,01,07,08,20.70
2013,07,01,07,09,20.70
2013,07,01,07,10,20.70
2013,07,01,07,11,20.60
2013,07,01,07,12,20.60
2013,07,01,07,13,20.60
2013,07,01,07,14,20.50
2013,07,01,07,15,20.50
2013,07,01,07,16,20.50
2013,07,01,07,17,20.50
2013,07,01,07,18,20.50
2013,07,01,07,19,20.50
2013,07,01,07,20,20.50
2013,07,01,07,21,20.40
2013,07,01,07,22,20.40
2013,07,01,07,23,20.40
2013,07,01,07,24,20.30
2013,07,01,07,25,20.40
2013,07,01,07,26,20.40
2013,07,01,07,27,20.50
2013,07,01,07,28,20.60
2013,07,01,07,29,20.70
2013,07,01,07,30,20.90
2013,07,01,07,31,21.00
2013,07,01,07,32,21.10
2013,07,01,07,33,21.30
2013,07,01,07,34,21.40
2013,07,01,07,35,21.50
2013,07,01,07,36,21.70
2013,07,01,07,37,21.80
2013,07,01,07,38,21.90
2013,07,01,07,39,22.00
2013,07,01,07,40,22.10
2013,07,01,07,41,22.20
2013,07,01,07,42,22.30
2013,07,01,07,43,22.40
2013,07,01,07,44,22.50
2013,07,01,07,45,22.60
2013,07,01,07,46,22.60
2013,07,01,07,47,22.70
2013,07,01,07,48,22.80
2013,07,01,07,49,22.80
2013,07,01,07,50,22.90
2013,07,01,07,51,22.90
2013,07,01,07,52,22.90
2013,07,01,07,53,22.90
2013,07,01,07,54,22.90
2013,07,01,07,55,22.90
2013,07,01,07,56,22.90
2013,07,01,07,57,22.90
2013,07,01,07,58,22.80
2013,07,01,07,59,22.90
2013,07,01,08,00,22.90
2013,07,01,08,01,22.90
2013,07,01,08,02,23.00
2013,07,01,08,03,22.90
2013,07,01,08,04,22.90
2013,07,01,08,05,22.90
2013,07,01,08,06,22.90
2013,07,01,08,07,23.00
2013,07,01,08,08,23.10
2013,07,01,08,09,23.10
2013,07,01,08,10,23.10
2013,07,01,08,11,23.10
2013,07,01,08,12,23.20
2013,07,01,08,13,23.30
2013,07,01,08,14,23.40
2013,07,01,08,15,23.60
2013,07,01,08,16,23.70
2013,07,01,08,17,23.90
2013,07,01,08,18,24.00
2013,07,01,08,19,24.10
2013,07,01,08,20,24.20
2013,07,01,08,21,24.20
2013,07,01,08,22,24.20
2013,07,01,08,23,24.30
2013,07,01,08,24,24.30
2013,07,01,08,25,24.40
2013,07,01,08,26,24.50
2013,07,01,08,27,24.60
2013,07,01,08,28,24.70
2013,07,01,08,29,24.70
2013,07,01,08,30,24.70
2013,07,01,08,31,24.70
2013,07,01,08,32,24.70
2013,07,01,08,33,24.70
2013,07,01,08,34,24.80
2013,07,01,08,35,24.80
2013,07,01,08,36,24.90
2013,07,01,08,37,24.90
2013,07,01,08,38,25.00
2013,07,01,08,39,25.10
2013,07,01,08,40,25.10
2013,07,01,08,41,25.10
2013,07,01,08,42,25.10
2013,07,01,08,43,25.10
2013,07,01,08,44,25.10
2013,07,01,08,45,25.10
2013,07,01,08,46,25.10
2013,07,01,08,47,25.20
2013,07,01,08,48,25.20
2013,07,01,08,49,25.20
2013,07,01,08,50,25.20
2013,07,01,08,51,25.20
2013,07,01,08,52,25.10
2013,07,01,08,53,25.10
2013,07,01,08,54,25.00
2013,07,01,08,55,25.10
2013,07,01,08,56,25.20
2013,07,01,08,57,25.20
2013,07,01,08,58,25.30
2013,07,01,08,59,25.40
2013,07,01,09,00,25.60
2013,07,01,09,01,25.70
2013,07,01,09,02,25.80
2013,07,01,09,03,25.90
2013,07,01,09,04,25.90
2013,07,01,09,05,26.00
2013,07,01,09,06,26.00
2013,07,01,09,07,26.00
2013,07,01,09,08,26.10
2013,07,01,09,09,26.20
2013,07,01,09,10,26.30
2013,07,01,09,11,26.30
2013,07,01,09,12,26.30
2013,07,01,09,13,26.40
2013,07,01,09,14,26.40
2013,07,01,09,15,26.50
2013,07,01,09,16,26.60
2013,07,01,09,17,26.60
2013,07,01,09,18,26.60
2013,07,01,09,19,26.70
2013,07,01,09,20,26.80
2013,07,01,09,21,26.80
2013,07,01,09,22,26.80
2013,07,01,09,23,26.90
2013,07,01,09,24,27.00
2013,07,01,09,25,27.00
2013,07,01,09,26,26.80
2013,07,01,09,27,26.60
2013,07,01,09,28,26.40
2013,07,01,09,29,26.10
2013,07,01,09,30,25.90
2013,07,01,09,31,25.80
2013,07,01,09,32,25.80
2013,07,01,09,33,25.90
2013,07,01,09,34,26.00
2013,07,01,09,35,26.00
2013,07,01,09,36,26.00
2013,07,01,09,37,25.90
2013,07,01,09,38,25.90
2013,07,01,09,39,25.90
2013,07,01,09,40,25.80
2013,07,01,09,41,25.70
2013,07,01,09,42,25.50
2013,07,01,09,43,25.50
2013,07,01,09,44,25.50
2013,07,01,09,45,25.60
2013,07,01,09,46,25.70
2013,07,01,09,47,25.80
2013,07,01,09,48,25.80
2013,07,01,09,49,25.80
2013,07,01,09,50,25.80
2013,07,01,09,51,25.80
2013,07,01,09,52,25.70
2013,07,01,09,53,25.70
2013,07,01,09,54,25.80
2013,07,01,09,55,25.80
2013,07,01,09,56,25.90
2013,07,01,09,57,25.90
2013,07,01,09,58,25.90
2013,07,01,09,59,25.90
2013,07,01,10,00,25.80
2013,07,01,10,01,25.70
2013,07,01,10,02,25.70
2013,07,01,10,03,25.70
2013,07,01,10,04,25.70
2013,07,01,10,05,25.60
2013,07,01,10,06,25.50
2013,07,01,10,07,25.30
2013,07,01,10,08,25.40
2013,07,01,10,09,25.40
2013,07,01,10,10,25.50
2013,07,01,10,11,25.70
2013,07,01,10,12,25.80
2013,07,01,10,13,25.80
2013,07,01,10,14,25.90
2013,07,01,10,15,25.90
2013,07,01,10,16,25.80
2013,07,01,10,17,25.90
2013,07,01,10,18,26.00
2013,07,01,10,19,26.00
2013,07,01,10,20,26.00
2013,07,01,10,21,26.10
2013,07,01,10,22,26.10
2013,07,01,10,23,26.20
2013,07,01,10,24,26.20
2013,07,01,10,25,26.20
2013,07,01,10,26,26.30
2013,07,01,10,27,26.30
2013,07,01,10,28,26.30
2013,07,01,10,29,26.30
2013,07,01,10,30,26.40
2013,07,01,10,31,26.50
2013,07,01,10,32,26.60
2013,07,01,10,33,26.60
2013,07,01,10,34,26.60
2013,07,01,10,35,26.60
2013,07,01,10,36,26.60
2013,07,01,10,37,26.60
2013,07,01,10,38,26.50
2013,07,01,10,39,26.40
2013,07,01,10,40,26.40
2013,07,01,10,41,26.40
2013,07,01,10,42,26.40
2013,07,01,10,43,26.40
2013,07,01,10,44,26.40
2013,07,01,10,45,26.50
2013,07,01,10,46,26.60
2013,07,01,10,47,26.80
2013,07,01,10,48,27.00
2013,07,01,10,49,27.20
2013,07,01,10,50,27.30
2013,07,01,10,51,27.30
2013,07,01,10,52,27.30
2013,07,01,10,53,27.40
2013,07,01,10,54,27.40
2013,07,01,10,55,27.40
2013,07,01,10,56,27.60
2013,07,01,10,57,27.50
2013,07,01,10,58,27.30
2013,07,01,10,59,27.30
2013,07,01,11,00,27.30
2013,07,01,11,01,27.20
2013,07,01,11,02,27.10
2013,07,01,11,03,27.10
2013,07,01,11,04,27.10
2013,07,01,11,05,27.10
2013,07,01,11,06,27.00
2013,07,01,11,07,26.90
2013,07,01,11,08,26.90
2013,07,01,11,09,26.90
2013,07,01,11,10,26.90
2013,07,01,11,11,26.80
2013,07,01,11,12,26.80
2013,07,01,11,13,26.90
2013,07,01,11,14,27.00
2013,07,01,11,15,27.20
2013,07,01,11,16,27.30
2013,07,01,11,17,27.30
2013,07,01,11,18,27.30
2013,07,01,11,19,27.30
2013,07,01,11,20,27.30
2013,07,01,11,21,27.50
2013,07,01,11,22,27.60
2013,07,01,11,23,27.60
2013,07,01,11,24,27.70
2013,07,01,11,25,27.70
2013,07,01,11,26,27.80
2013,07,01,11,27,27.90
2013,07,01,11,28,27.90
2013,07,01,11,29,27.90
2013,07,01,11,30,28.00
2013,07,01,11,31,27.90
2013,07,01,11,32,27.80
2013,07,01,11,33,27.80
2013,07,01,11,34,27.80
2013,07,01,11,35,27.90
2013,07,01,11,36,27.80
2013,07,01,11,37,27.50
2013,07,01,11,38,27.20
2013,07,01,11,39,26.90
2013,07,01,11,40,26.60
2013,07,01,11,41,26.50
2013,07,01,11,42,26.40
2013,07,01,11,43,26.20
2013,07,01,11,44,26.10
2013,07,01,11,45,26.20
2013,07,01,11,46,26.20
2013,07,01,11,47,26.40
2013,07,01,11,48,26.50
2013,07,01,11,49,26.60
2013,07,01,11,50,26.60
2013,07,01,11,51,26.70
2013,07,01,11,52,26.90
2013,07,01,11,53,27.30
2013,07,01,11,54,27.50
2013,07,01,11,55,27.70
2013,07,01,11,56,27.90
2013,07,01,11,57,27.90
2013,07,01,11,58,27.90
2013,07,01,11,59,27.90
2013,07,01,12,00,28.00
2013,07,01,12,01,28.00
2013,07,01,12,02,27.90
2013,07,01,12,03,27.90
2013,07,01,12,04,27.90
2013,07,01,12,05,27.90
2013,07,01,12,06,27.90
2013,07,01,12,07,27.90
2013,07,01,12,08,28.10
2013,07,01,12,09,28.30
2013,07,01,12,10,28.50
2013,07,01,12,11,28.60
2013,07,01,12,12,28.60
2013,07,01,12,13,28.60
2013,07,01,12,14,28.60
2013,07,01,12,15,28.60
2013,07,01,12,16,28.60
2013,07,01,12,17,28.60
2013,07,01,12,18,28.50
2013,07,01,12,19,28.40
2013,07,01,12,20,28.50
2013,07,01,12,21,28.40
2013,07,01,12,22,28.20
2013,07,01,12,23,28.00
2013,07,01,12,24,27.80
2013,07,01,12,25,27.70
2013,07,01,12,26,27.60
2013,07,01,12,27,27.60
2013,07,01,12,28,27.50
2013,07,01,12,29,27.40
2013,07,01,12,30,27.40
2013,07,01,12,31,27.40
2013,07,01,12,32,27.40
2013,07,01,12,33,27.30
2013,07,01,12,34,27.30
2013,07,01,12,35,27.20
2013,07,01,12,36,27.30
2013,07,01,12,37,27.30
2013,07,01,12,38,27.30
2013,07,01,12,39,27.30
2013,07,01,12,40,27.30
2013,07,01,12,41,27.30
2013,07,01,12,42,27.40
2013,07,01,12,43,27.40
2013,07,01,12,44,27.30
2013,07,01,12,45,27.30
2013,07,01,12,46,27.30
2013,07,01,12,47,27.30
2013,07,01,12,48,27.30
2013,07,01,12,49,27.30
2013,07,01,12,50,27.30
2013,07,01,12,51,27.40
2013,07,01,12,52,27.40
2013,07,01,12,53,27.30
2013,07,01,12,54,27.30
2013,07,01,12,55,27.30
2013,07,01,12,56,27.30
2013,07,01,12,57,27.40
2013,07,01,12,58,27.50
2013,07,01,12,59,27.60
2013,07,01,13,00,27.70
2013,07,01,13,01,27.80
2013,07,01,13,02,27.90
2013,07,01,13,03,27.80
2013,07,01,13,04,27.80
2013,07,01,13,05,27.70
2013,07,01,13,06,27.60
2013,07,01,13,07,27.60
2013,07,01,13,08,27.60
2013,07,01,13,09,27.60
2013,07,01,13,10,27.60
2013,07,01,13,11,27.70
2013,07,01,13,12,27.70
2013,07,01,13,13,27.80
2013,07,01,13,14,27.80
2013,07,01,13,15,27.90
2013,07,01,13,16,27.90
2013,07,01,13,17,28.00
2013,07,01,13,18,28.00
2013,07,01,13,19,28.00
2013,07,01,13,20,28.00
2013,07,01,13,21,28.00
2013,07,01,13,22,27.90
2013,07,01,13,23,27.80
2013,07,01,13,24,27.60
2013,07,01,13,25,27.40
2013,07,01,13,26,27.40
2013,07,01,13,27,27.50
2013,07,01,13,28,27.60
2013,07,01,13,29,27.60
2013,07,01,13,30,27.70
2013,07,01,13,31,27.70
2013,07,01,13,32,27.80
2013,07,01,13,33,27.90
2013,07,01,13,34,28.00
2013,07,01,13,35,28.10
2013,07,01,13,36,28.20
2013,07,01,13,37,28.20
2013,07,01,13,38,28.20
2013,07,01,13,39,28.30
2013,07,01,13,40,28.40
2013,07,01,13,41,28.50
2013,07,01,13,42,28.60
2013,07,01,13,43,28.80
2013,07,01,13,44,28.90
2013,07,01,13,45,28.90
2013,07,01,13,46,28.90
2013,07,01,13,47,28.90
2013,07,01,13,48,28.90
2013,07,01,13,49,28.80
2013,07,01,13,50,28.60
2013,07,01,13,51,28.40
2013,07,01,13,52,28.30
2013,07,01,13,53,28.30
2013,07,01,13,54,28.30
2013,07,01,13,55,28.30
2013,07,01,13,56,28.40
2013,07,01,13,57,28.50
2013,07,01,13,58,28.60
2013,07,01,13,59,28.70
2013,07,01,14,00,28.70
2013,07,01,14,01,28.60
2013,07,01,14,02,28.60
2013,07,01,14,03,28.50
2013,07,01,14,04,28.40
2013,07,01,14,05,28.30
2013,07,01,14,06,28.30
2013,07,01,14,07,28.30
2013,07,01,14,08,28.40
2013,07,01,14,09,28.50
2013,07,01,14,10,28.60
2013,07,01,14,11,28.60
2013,07,01,14,12,28.60
2013,07,01,14,13,28.60
2013,07,01,14,14,28.60
2013,07,01,14,15,28.60
2013,07,01,14,16,28.60
2013,07,01,14,17,28.60
2013,07,01,14,18,28.70
2013,07,01,14,19,28.80
2013,07,01,14,20,28.90
2013,07,01,14,21,28.90
2013,07,01,14,22,28.90
2013,07,01,14,23,28.60
2013,07,01,14,24,28.40
2013,07,01,14,25,28.30
2013,07,01,14,26,28.30
2013,07,01,14,27,28.20
2013,07,01,14,28,28.30
2013,07,01,14,29,28.40
2013,07,01,14,30,28.40
2013,07,01,14,31,28.40
2013,07,01,14,32,28.30
2013,07,01,14,33,28.30
2013,07,01,14,34,28.20
2013,07,01,14,35,28.10
2013,07,01,14,36,28.10
2013,07,01,14,37,28.10
2013,07,01,14,38,28.20
2013,07,01,14,39,28.30
2013,07,01,14,40,28.50
2013,07,01,14,41,28.60
2013,07,01,14,42,28.70
2013,07,01,14,43,28.70
2013,07,01,14,44,28.80
2013,07,01,14,45,28.90
2013,07,01,14,46,28.90
2013,07,01,14,47,29.00
2013,07,01,14,48,29.10
2013,07,01,14,49,29.10
2013,07,01,14,50,29.30
2013,07,01,14,51,29.20
2013,07,01,14,52,29.10
2013,07,01,14,53,29.10
2013,07,01,14,54,28.90
2013,07,01,14,55,28.90
2013,07,01,14,56,29.10
2013,07,01,14,57,29.20
2013,07,01,14,58,29.20
2013,07,01,14,59,29.20
2013,07,01,15,00,29.30
2013,07,01,15,01,29.30
2013,07,01,15,02,29.40
2013,07,01,15,03,29.50
2013,07,01,15,04,29.60
2013,07,01,15,05,29.70
2013,07,01,15,06,29.50
2013,07,01,15,07,29.50
2013,07,01,15,08,29.50
2013,07,01,15,09,29.50
2013,07,01,15,10,29.50
2013,07,01,15,11,29.40
2013,07,01,15,12,29.50
2013,07,01,15,13,29.60
2013,07,01,15,14,29.80
2013,07,01,15,15,29.80
2013,07,01,15,16,29.90
2013,07,01,15,17,29.90
2013,07,01,15,18,29.90
2013,07,01,15,19,30.00
2013,07,01,15,20,30.10
2013,07,01,15,21,30.10
2013,07,01,15,22,30.30
2013,07,01,15,23,30.40
2013,07,01,15,24,30.50
2013,07,01,15,25,30.60
2013,07,01,15,26,30.60
2013,07,01,15,27,30.70
2013,07,01,15,28,30.80
2013,07,01,15,29,30.80
2013,07,01,15,30,30.80
2013,07,01,15,31,30.70
2013,07,01,15,32,30.60
2013,07,01,15,33,30.60
2013,07,01,15,34,30.70
2013,07,01,15,35,30.70
2013,07,01,15,36,30.90
2013,07,01,15,37,31.00
2013,07,01,15,38,31.20
2013,07,01,15,39,31.30
2013,07,01,15,40,31.40
2013,07,01,15,41,31.60
2013,07,01,15,42,31.80
2013,07,01,15,43,31.80
2013,07,01,15,44,31.90
2013,07,01,15,45,31.90
2013,07,01,15,46,31.90
2013,07,01,15,47,31.90
2013,07,01,15,48,31.90
2013,07,01,15,49,31.90
2013,07,01,15,50,31.80
2013,07,01,15,51,31.60
2013,07,01,15,52,31.50
2013,07,01,15,53,31.30
2013,07,01,15,54,31.20
2013,07,01,15,55,31.10
2013,07,01,15,56,31.10
2013,07,01,15,57,31.00
2013,07,01,15,58,30.90
2013,07,01,15,59,30.90
2013,07,01,16,00,30.90
2013,07,01,16,01,30.80
2013,07,01,16,02,30.70
2013,07,01,16,03,30.60
2013,07,01,16,04,30.60
2013,07,01,16,05,30.60
2013,07,01,16,06,30.70
2013,07,01,16,07,30.80
2013,07,01,16,08,31.00
2013,07,01,16,09,31.10
2013,07,01,16,10,31.20
2013,07,01,16,11,31.30
2013,07,01,16,12,31.20
2013,07,01,16,13,31.10
2013,07,01,16,14,31.00
2013,07,01,16,15,31.10
2013,07,01,16,16,31.10
2013,07,01,16,17,31.10
2013,07,01,16,18,31.20
2013,07,01,16,19,31.30
2013,07,01,16,20,31.30
2013,07,01,16,21,31.30
2013,07,01,16,22,31.30
2013,07,01,16,23,31.20
2013,07,01,16,24,31.20
2013,07,01,16,25,31.10
2013,07,01,16,26,31.20
2013,07,01,16,27,31.20
2013,07,01,16,28,31.40
2013,07,01,16,29,31.40
2013,07,01,16,30,31.50
2013,07,01,16,31,31.40
2013,07,01,16,32,31.40
2013,07,01,16,33,31.50
2013,07,01,16,34,31.40
2013,07,01,16,35,31.20
2013,07,01,16,36,31.20
2013,07,01,16,37,31.20
2013,07,01,16,38,31.10
2013,07,01,16,39,30.90
2013,07,01,16,40,30.90
2013,07,01,16,41,30.90
2013,07,01,16,42,30.80
2013,07,01,16,43,30.80
2013,07,01,16,44,30.80
2013,07,01,16,45,30.80
2013,07,01,16,46,31.00
2013,07,01,16,47,31.00
2013,07,01,16,48,31.00
2013,07,01,16,49,31.00
2013,07,01,16,50,31.00
2013,07,01,16,51,31.00
2013,07,01,16,52,31.10
2013,07,01,16,53,31.10
2013,07,01,16,54,31.20
2013,07,01,16,55,31.20
2013,07,01,16,56,31.40
2013,07,01,16,57,31.50
2013,07,01,16,58,31.60
2013,07,01,16,59,31.70
2013,07,01,17,00,31.60
2013,07,01,17,01,31.60
2013,07,01,17,02,31.50
2013,07,01,17,03,31.40
2013,07,01,17,04,31.40
2013,07,01,17,05,31.40
2013,07,01,17,06,31.50
2013,07,01,17,07,31.60
2013,07,01,17,08,31.60
2013,07,01,17,09,31.60
2013,07,01,17,10,31.60
2013,07,01,17,11,31.60
2013,07,01,17,12,31.60
2013,07,01,17,13,31.60
2013,07,01,17,14,31.70
2013,07,01,17,15,31.70
2013,07,01,17,16,31.70
2013,07,01,17,17,31.70
2013,07,01,17,18,31.80
2013,07,01,17,19,31.80